• în România
  • Lista ţărilor
  • Pe 7 zile
  • Temperatura apei
  • Hartă satelitară
  • Meteo pe hartă
  • Widget-uri
  • user-avatar
    Intrare

    Meteo pe oră la Buar

    Astăzi, 18 Iunie, Luni

    Timp Temperatura Precipitaţii Vânt Presiune Umiditate
    00:00 +23°C° 0 mm 1 m/s 695 mmHg 84%
    01:00 +23°C° 0 mm 1 m/s 695 mmHg 86%
    02:00 +22°C° 0,6 mm 1 m/s 695 mmHg 89%
    03:00 +22°C° 0,6 mm 1 m/s 695 mmHg 92%
    04:00 +21°C° 0,6 mm 1 m/s 695 mmHg 95%
    05:00 +22°C° 0,1 mm 1 m/s 696 mmHg 94%
    06:00 +21°C° 0,1 mm 2 m/s 696 mmHg 93%
    07:00 +23°C° 0,1 mm 2 m/s 696 mmHg 92%
    08:00 +25°C° 0 mm 2 m/s 696 mmHg 82%
    09:00 +27°C° 0 mm 3 m/s 697 mmHg 73%
    10:00 +29°C° 0 mm 3 m/s 697 mmHg 64%
    11:00 +30°C° 0,2 mm 3 m/s 697 mmHg 62%
    12:00 +31°C° 0,2 mm 3 m/s 696 mmHg 61%
    13:00 +31°C° 0,2 mm 3 m/s 696 mmHg 59%
    14:00 +31°C° 0,5 mm 3 m/s 695 mmHg 60%
    15:00 +31°C° 0,5 mm 3 m/s 695 mmHg 61%
    16:00 +30°C° 0,5 mm 3 m/s 694 mmHg 62%
    17:00 +29°C° 0,4 mm 2 m/s 694 mmHg 70%
    18:00 +27°C° 0,4 mm 2 m/s 694 mmHg 77%
    19:00 +25°C° 0,4 mm 2 m/s 693 mmHg 85%
    20:00 +24°C° 1,4 mm 2 m/s 694 mmHg 88%
    21:00 +23°C° 1,4 mm 2 m/s 695 mmHg 91%
    22:00 +23°C° 1,4 mm 2 m/s 695 mmHg 94%
    23:00 +23°C° 0,2 mm 2 m/s 695 mmHg 94%

    Mâine, 19 Iunie, Marţi

    Timp Temperatura Precipitaţii Vânt Presiune Umiditate
    00:00 +21°C° 0,2 mm 2 m/s 695 mmHg 95%
    01:00 +21°C° 0,2 mm 2 m/s 695 mmHg 95%
    02:00 +21°C° 0,5 mm 2 m/s 695 mmHg 96%
    03:00 +21°C° 0,5 mm 2 m/s 695 mmHg 96%
    04:00 +21°C° 0,5 mm 2 m/s 695 mmHg 96%
    05:00 +21°C° 1,5 mm 2 m/s 695 mmHg 96%
    06:00 +21°C° 1,5 mm 2 m/s 695 mmHg 96%
    07:00 +21°C° 1,5 mm 2 m/s 695 mmHg 96%
    08:00 +21°C° 1,3 mm 2 m/s 696 mmHg 96%
    09:00 +21°C° 1,3 mm 3 m/s 696 mmHg 95%
    10:00 +21°C° 1,3 mm 3 m/s 696 mmHg 95%
    11:00 +22°C° 1,4 mm 3 m/s 696 mmHg 94%
    12:00 +22°C° 1,4 mm 3 m/s 696 mmHg 94%
    13:00 +22°C° 1,4 mm 3 m/s 696 mmHg 93%
    14:00 +22°C° 0,7 mm 3 m/s 695 mmHg 93%
    15:00 +22°C° 0,7 mm 3 m/s 695 mmHg 93%
    16:00 +22°C° 0,7 mm 3 m/s 694 mmHg 92%
    17:00 +23°C° 0,6 mm 2 m/s 695 mmHg 94%
    18:00 +21°C° 0,6 mm 2 m/s 695 mmHg 95%
    19:00 +22°C° 0,6 mm 1 m/s 695 mmHg 97%
    20:00 +21°C° 0,2 mm 1 m/s 696 mmHg 97%
    21:00 +21°C° 0,2 mm 1 m/s 696 mmHg 97%
    22:00 +20°C° 0,2 mm 2 m/s 696 mmHg 97%
    23:00 +21°C° 0 mm 1 m/s 696 mmHg 97%

    Poimâine, 20 Iunie, Miercuri

    Timp Temperatura Precipitaţii Vânt Presiune Umiditate
    00:00 +21°C° 0 mm 1 m/s 696 mmHg 98%
    01:00 +21°C° 0 mm 1 m/s 696 mmHg 98%
    02:00 +20°C° 0,2 mm 1 m/s 696 mmHg 98%
    03:00 +20°C° 0,2 mm 1 m/s 696 mmHg 98%
    04:00 +20°C° 0,2 mm 1 m/s 695 mmHg 98%
    05:00 +19°C° 0,1 mm 2 m/s 696 mmHg 98%
    06:00 +20°C° 0,1 mm 2 m/s 696 mmHg 97%
    07:00 +20°C° 0,1 mm 2 m/s 697 mmHg 97%
    08:00 +21°C° 0,1 mm 2 m/s 697 mmHg 90%
    09:00 +24°C° 0,1 mm 3 m/s 698 mmHg 84%
    10:00 +25°C° 0,1 mm 3 m/s 698 mmHg 78%
    11:00 +26°C° 0,4 mm 3 m/s 698 mmHg 76%
    12:00 +26°C° 0,4 mm 3 m/s 698 mmHg 74%
    13:00 +27°C° 0,4 mm 3 m/s 697 mmHg 73%
    14:00 +27°C° 0,4 mm 3 m/s 697 mmHg 75%
    15:00 +26°C° 0,4 mm 3 m/s 696 mmHg 77%
    16:00 +26°C° 0,4 mm 3 m/s 695 mmHg 80%
    17:00 +24°C° 0 mm 2 m/s 696 mmHg 83%
    18:00 +23°C° 0 mm 2 m/s 696 mmHg 87%
    19:00 +22°C° 0 mm 1 m/s 696 mmHg 91%
    20:00 +22°C° 0 mm 1 m/s 697 mmHg 93%
    21:00 +21°C° 0 mm 1 m/s 697 mmHg 95%
    22:00 +21°C° 0 mm 1 m/s 697 mmHg 97%
    23:00 +20°C° 0 mm 1 m/s 697 mmHg 97%

    21 Iunie, Joi

    Timp Temperatura Precipitaţii Vânt Presiune Umiditate
    00:00 +20°C° 0 mm 1 m/s 697 mmHg 98%
    01:00 +20°C° 0 mm 1 m/s 697 mmHg 98%
    02:00 +19°C° 0 mm 1 m/s 696 mmHg 98%
    03:00 +19°C° 0 mm 1 m/s 696 mmHg 98%
    04:00 +19°C° 0 mm 1 m/s 696 mmHg 98%
    05:00 +19°C° 0 mm 1 m/s 696 mmHg 97%
    06:00 +20°C° 0 mm 1 m/s 697 mmHg 95%
    07:00 +20°C° 0 mm 1 m/s 697 mmHg 94%
    08:00 +23°C° 0 mm 1 m/s 698 mmHg 83%
    09:00 +25°C° 0 mm 1 m/s 698 mmHg 73%
    10:00 +28°C° 0 mm 2 m/s 699 mmHg 62%
    11:00 +29°C° 0 mm 2 m/s 698 mmHg 57%
    12:00 +30°C° 0 mm 2 m/s 698 mmHg 51%
    13:00 +32°C° 0 mm 2 m/s 698 mmHg 46%
    14:00 +31°C° 0 mm 2 m/s 697 mmHg 47%
    15:00 +31°C° 0 mm 2 m/s 696 mmHg 48%
    16:00 +31°C° 0 mm 2 m/s 696 mmHg 49%
    17:00 +29°C° 0,1 mm 2 m/s 696 mmHg 58%
    18:00 +26°C° 0,1 mm 1 m/s 696 mmHg 67%
    19:00 +24°C° 0,1 mm 1 m/s 697 mmHg 75%
    20:00 +23°C° 0 mm 1 m/s 697 mmHg 78%
    21:00 +23°C° 0 mm 1 m/s 697 mmHg 81%
    22:00 +22°C° 0 mm 1 m/s 698 mmHg 85%
    23:00 +22°C° 0 mm 1 m/s 697 mmHg 86%

    22 Iunie, Vineri

    Timp Temperatura Precipitaţii Vânt Presiune Umiditate
    00:00 +21°C° 0 mm 1 m/s 697 mmHg 87%
    01:00 +21°C° 0 mm 1 m/s 696 mmHg 88%
    02:00 +20°C° 0 mm 1 m/s 696 mmHg 88%
    03:00 +20°C° 0 mm 1 m/s 696 mmHg 89%
    04:00 +20°C° 0 mm 1 m/s 696 mmHg 89%
    05:00 +20°C° 0 mm 1 m/s 696 mmHg 87%
    06:00 +21°C° 0 mm 1 m/s 697 mmHg 84%
    07:00 +22°C° 0 mm 1 m/s 697 mmHg 82%
    08:00 +24°C° 0 mm 1 m/s 698 mmHg 72%
    09:00 +27°C° 0 mm 1 m/s 698 mmHg 63%
    10:00 +30°C° 0 mm 1 m/s 699 mmHg 53%
    11:00 +30°C° 0,1 mm 1 m/s 698 mmHg 52%
    12:00 +31°C° 0,1 mm 1 m/s 698 mmHg 52%
    13:00 +31°C° 0,1 mm 1 m/s 697 mmHg 51%
    14:00 +29°C° 1 mm 1 m/s 696 mmHg 62%
    15:00 +28°C° 1 mm 1 m/s 696 mmHg 74%
    16:00 +26°C° 1 mm 1 m/s 695 mmHg 85%
    17:00 +25°C° 1 mm 1 m/s 696 mmHg 88%
    18:00 +23°C° 1 mm 1 m/s 696 mmHg 90%
    19:00 +22°C° 1 mm 1 m/s 696 mmHg 93%
    20:00 +20°C° 0,1 mm 0 m/s 696 mmHg 93%
    21:00 +19°C° 0,1 mm 0 m/s 696 mmHg 94%
    22:00 +19°C° 0,1 mm 0 m/s 696 mmHg 94%
    23:00 +19°C° 0 mm 0 m/s 696 mmHg 94%

    23 Iunie, Sâmbătă

    Timp Temperatura Precipitaţii Vânt Presiune Umiditate
    00:00 +19°C° 0 mm 0 m/s 696 mmHg 94%
    01:00 +19°C° 0 mm 0 m/s 696 mmHg 94%
    02:00 +19°C° 0 mm 0 m/s 696 mmHg 94%
    03:00 +19°C° 0 mm 0 m/s 696 mmHg 94%
    04:00 +19°C° 0 mm 0 m/s 696 mmHg 94%
    05:00 +19°C° 0 mm 0 m/s 696 mmHg 93%
    06:00 +19°C° 0 mm 0 m/s 697 mmHg 93%
    07:00 +20°C° 0 mm 0 m/s 697 mmHg 93%
    08:00 +23°C° 0,2 mm 1 m/s 697 mmHg 89%
    09:00 +24°C° 0,2 mm 1 m/s 697 mmHg 85%
    10:00 +25°C° 0,2 mm 1 m/s 698 mmHg 81%
    11:00 +26°C° 0,3 mm 1 m/s 697 mmHg 75%
    12:00 +27°C° 0,3 mm 1 m/s 697 mmHg 70%
    13:00 +28°C° 0,3 mm 2 m/s 696 mmHg 64%
    14:00 +28°C° 0,2 mm 1 m/s 696 mmHg 62%
    15:00 +29°C° 0,2 mm 1 m/s 695 mmHg 60%
    16:00 +29°C° 0,2 mm 1 m/s 695 mmHg 59%
    17:00 +27°C° 0,4 mm 1 m/s 695 mmHg 66%
    18:00 +25°C° 0,4 mm 1 m/s 695 mmHg 74%
    19:00 +23°C° 0,4 mm 1 m/s 696 mmHg 81%
    20:00 +22°C° 0,3 mm 1 m/s 696 mmHg 85%
    21:00 +22°C° 0,3 mm 1 m/s 696 mmHg 88%
    22:00 +21°C° 0,3 mm 1 m/s 696 mmHg 91%
    23:00 +21°C° 0,1 mm 1 m/s 696 mmHg 92%
    Arată mai mult